Regional Weather Roundup
Issued by NWS Kansas City/Pleasant Hill, MO

Home | Current Version | Previous Version | Text Only | Print | Product List | Glossary On
Versions: 1 2 3 4 5 6 7 8 9 10 11 12 13 14 15 16 17 18 19 20 21 22 23 24 25 26 27 28 29 30 31 32 33 34 35 36 37 38 39 40 41 42 43 44 45 46 47 48 49 50
000
ASUS43 KEAX 300010
RWREAX

WEATHER ROUNDUP FOR EASTERN KANSAS AND NORTHWEST MISSOURI
NATIONAL WEATHER SERVICE KANSAS CITY/PLEASANT HILL MO
700 PM CDT WED MAR 29 2017

KSZ040-057-103>105-MOZ028-029-037-043-300100-
...KANSAS CITY METROPOLITAN AREA...

CITY           SKY/WX    TMP DP  RH WIND       PRES   REMARKS
K.C. INTL      MOCLDY    54  53  97 NE10      29.66F
6HR MIN TEMP:  50; 6HR MAX TEMP:  56; 6HR PCP:  0.14;

K.C. DOWNTOWN  MOCLDY    60  55  83 NE9       29.66F
6HR MIN TEMP:  55; 6HR MAX TEMP:  60; 6HR PCP:  0.47;

LEES SUMMIT    TSTM      58  55  90 NE13      29.66F
6HR MIN TEMP:  54; 6HR MAX TEMP:  62; 6HR PCP:  0.04;

OLATHE - IXD   CLOUDY    60  54  80 E5        29.65R
6HR MIN TEMP:  57; 6HR MAX TEMP:  64; 6HR PCP:  0.13;

OLATHE - OJC   CLOUDY    59  58  96 E5        29.65R
6HR MIN TEMP:  56; 6HR MAX TEMP:  65; 6HR PCP:  0.04;

LAWRENCE       PTCLDY    57  56  96 NE12      29.63F

$$

MOZ001>008-011>017-020>025-030>033-038>040-044>046-053-054-300100-
...NORTHERN AND CENTRAL MISSOURI...

CITY           SKY/WX    TMP DP  RH WIND       PRES   REMARKS
ST. JOSEPH     LGT RAIN  52  52 100 NE9       29.67F
6HR MIN TEMP:  49; 6HR MAX TEMP:  53; 6HR PCP:  0.23;

MOSBY          TSTM      59  52  77 S14G46    29.70R
WARRENSBURG    MOCLDY    63  55  77 E12       29.65S
WHITEMAN AFB   MOCLDY    62  62 100 E9        29.65S
6HR MIN TEMP:  53; 6HR MAX TEMP:  65; 6HR PCP: TRACE;

CLINTON        CLOUDY    70  59  68 S15G21    29.65R
SEDALIA        CLOUDY    60  57  89 E10       29.69F
6HR MIN TEMP:  54; 6HR MAX TEMP:  64; 6HR PCP:  0.26;

WARSAW         NOT AVBL
CHILLICOTHE      N/A     55  52  89 E10G21    29.74F
6HR MIN TEMP:  50; 6HR MAX TEMP:  55;

KIRKSVILLE     CLOUDY    50  49  96 E15       29.80F
6HR MIN TEMP:  48; 6HR MAX TEMP:  52; 6HR PCP:  0.10;


$$

MOZ041-047>049-056>058-063>065-088>090-097-300100-
...EASTERN AND SOUTHERN MISSOURI...

CITY           SKY/WX    TMP DP  RH WIND       PRES   REMARKS
ST. LOUIS INTL CLOUDY    66  54  65 E16       29.82F
6HR MIN TEMP:  57; 6HR MAX TEMP:  67; 6HR PCP: TRACE;

SPIRIT OF STL  CLOUDY    66  57  72 E8        29.79F
COLUMBIA       MOCLDY    62  57  83 E15       29.73F
JEFFERSON CITY CLOUDY    66  58  75 E6        29.71F
ROLLA          LGT RAIN  66  59  78 E8        29.73S
OSAGE BEACH    CLOUDY    67  62  84 SE7       29.71F
SPRINGFIELD    PTCLDY    69  58  67 S15       29.68R
BRANSON        MOCLDY    70  57  64 S7G18     29.71S
JOPLIN         MOCLDY    71  54  54 SW13G22   29.64R
WEST PLAINS    TSTM      71  61  70 SE13G21   29.73F

$$

IAZ060-094-KSZ022-034>040-054-083-096-NEZ052-066-093-300100-
...KANSAS...SOUTHEAST NEBRASKA AND IOWA...

CITY           SKY/WX    TMP DP  RH WIND       PRES   REMARKS
TOPEKA         CLOUDY    58  56  93 NE14      29.61F
6HR MIN TEMP:  53; 6HR MAX TEMP:  60; 6HR PCP:  0.48;

MANHATTAN      CLOUDY    47  46  97 NE14G25   29.64S
EMPORIA        CLOUDY    59  52  77 S13       29.59R
CHANUTE        TSTM      61  55  81 S8        29.62S
WICHITA        LGT RAIN  52  50  93 S12       29.57S FOG
OMAHA          LGT RAIN  43  38  82 NE25G36   29.83F FOG     WCI  33
LINCOLN        CLOUDY    44  41  89 NE21G30   29.83S
FALLS CITY     CLOUDY    48  47  96 N13       29.70F
LAMONI         CLOUDY    49  48  97 E17G25    29.77F FOG
DES MOINES     LGT RAIN  45  42  89 E16G29    29.88F FOG

$$




USA.gov is the U.S. government's official web portal to all federal, state and local government web resources and services.